User: anonymous   Login
Location: Unspecified
(0.0000°N, 0.0000°E)
Time: 07:18:46
(UTC+00:00)
Language:

IRAZU - Orbit

View from above orbital plane
View from above orbital plane
View from above satellite
View from above satellite

Ground track
Ground track

The orbit is defined by the following mean orbital elements,

1 43468U 98067NR  20064.05831928  .04860327  12102-4  10158-2 0  9990
2 43468  51.6208  66.1430 0002240 149.8670 210.2481 16.30203714203978
Epoch (UTC): 04 March 2020 01:23:58
Eccentricity: 0.0002240
inclination: 51.6208°
perigee height: 190 km
apogee height: 193 km
right ascension of ascending node: 66.1430°
argument of perigee: 149.8670°
revolutions per day: 16.30203714
mean anomaly at epoch: 210.2481°

The dashed part of the orbit path shows where the satellite is in the earth's shadow,  

DLR